Location: Newark
(13.8117°N, 3.6025°W)
Time: 14:35:20
(UTC+00:00)

Vanguard 2 - Pass Details

Date: 01 September 2019
Orbit: 554 x 2937 km, 32.9° (Epoch: 17 September)

Event Time Altitude Azimuth Distance (km) Brightness Sun altitude
Rises 18:44:20 0° 276° (W) 4,947 14.6 -5.2°
Reaches altitude 10° 18:47:50 10° 265° (W) 4,291 12.9 -6.1°
Maximum altitude 18:57:59 29° 211° (SSW) 3,735 11.2 -8.5°
Drops below altitude 10° 19:11:28 10° 158° (SSE) 5,685 11.6 -11.7°
Sets 19:17:11 0° 148° (SSE) 6,783 11.9 -13.1°
